Regional Weather Roundup
Issued by NWS

Home | Current Version | Previous Version | Graphics & Text | Print | Product List | Glossary On
Versions: 1 2 3 4 5 6 7 8 9 10 11 12 13 14 15 16 17 18 19 20 21 22 23 24 25 26 27 28 29 30 31 32 33 34 35 36 37 38 39 40 41 42 43 44 45 46 47 48 49 50
000
ASUS45 KABQ 250710
RWRNM
NEW MEXICO REGIONAL WEATHER ROUNDUP
NATIONAL WEATHER SERVICE ALBUQUERQUE NM
100 AM MDT TUE APR 25 2017

NOTE: "FAIR" MEANS FEW OR NO CLOUDS BELOW 12,000 FEET AGL WITH NO
       SIGNIFICANT WEATHER OR OBSTRUCTIONS TO VISION.

      THIS PRODUCT IS RELEASED AS TWO VERSIONS.  ONE VERSION NEAR
      THE TOP OF THE HOUR CONTAINING PRELIMINARY DATA FROM ALBUQUERQUE
      AND OTHER STATIONS.  A FINAL VERSION WITH ADDITIONAL DATA IS
      ISSUED ABOUT 10 MINUTES AFTER THE HOUR.

NMZ501-503-504-510>518-250800-
NORTHWEST PLATEAU/NORTHCENTRAL MOUNTAINS

CITY           SKY/WX    TMP DP  RH WIND       PRES   REMARKS
FARMINGTON     FAIR      60  24  25 W20G29    29.65S
LOS ALAMOS     FAIR      54  24  31 SW3       29.77F
SANTA FE       FAIR      58  26  29 NW14G24   29.72S
TAOS             N/A     45  18  33 CALM      29.74S
ANGEL FIRE     FAIR      47  22  37 W24G35    29.73S

$$
NMZ402-403-502-505>509-250800-
WESTCENTRAL MOUNTAINS/SOUTHWEST MOUNTAINS

CITY           SKY/WX    TMP DP  RH WIND       PRES   REMARKS
GALLUP         FAIR      55  16  21 SW28G38   29.78S
GRANTS         CLOUDY    57  18  21 CALM      29.81F
SILVER CITY    FAIR      61  19  19 NW15G23   29.81F

$$
NMZ407-409-411-412-250800-
SOUTHERN DESERTS

CITY           SKY/WX    TMP DP  RH WIND       PRES   REMARKS
DEMING         FAIR      70  18  13 W13G22    29.76F
LAS CRUCES     FAIR      70  16  12 W6        29.77S
HOLLOMAN AFB   FAIR      76  16  10 W21G35    29.74S
ALAMOGORDO     FAIR      73  18  12 E3        29.75S
T OR C         FAIR      69  17  13 SW12      29.72F

$$
NMZ519>523-250800-
CENTRAL VALLEYS/CENTRAL HIGHLANDS

CITY           SKY/WX    TMP DP  RH WIND       PRES   REMARKS
ALBUQUERQUE    MOCLDY    65  20  17 SW10      29.73S
MORIARTY ARPT  CLOUDY    64  20  18 W7G22     29.77S
CLINES CORNERS FAIR      57  18  21 W37G53    29.74F
BELEN          CLOUDY    60  19  20 W3        29.74S
SOCORRO        FAIR      70  15  12 W9G20     29.72S

$$
NMZ524>526-539-540-250800-
SOUTHCENTRAL MOUNTAINS

CITY           SKY/WX    TMP DP  RH WIND       PRES   REMARKS
RUIDOSO        FAIR      63  16  16 W17G28    29.78F

$$
NMZ527>531-250800-
NORTHEAST HIGHLANDS/NORTHEAST PLAINS

CITY           SKY/WX    TMP DP  RH WIND       PRES   REMARKS
LAS VEGAS      FAIR      57  20  23 W21G38    29.66S
RATON          FAIR      50  23  34 SW7       29.61S
CLAYTON        FAIR      55  38  52 SW6       29.53F

$$
NMZ532>537-250800-
EASTCENTRAL PLAINS

CITY           SKY/WX    TMP DP  RH WIND       PRES   REMARKS
SANTA ROSA     FAIR      62  19  18 W3        29.61S
TUCUMCARI      FAIR      70  19  14 W17       29.50F
CANNON AFB     FAIR      68  18  14 W17       29.58S
CLOVIS AIRPORT FAIR      66  19  16 W16       29.58S

$$
NMZ028-029-538-250800-
SOUTHEAST PLAINS

CITY           SKY/WX    TMP DP  RH WIND       PRES   REMARKS
ROSWELL        FAIR      73  20  13 SW16        N/A
ARTESIA        FAIR      77  21  12 W21G28    29.61S
CARLSBAD       FAIR      82  18   9 W35G44    29.57F
HOBBS          FAIR      64  18  16 SW8       29.62F


$$




USA.gov is the U.S. government's official web portal to all federal, state and local government web resources and services.